TimePDT,TemperatureF,Dew PointF,Humidity,Sea Level PressureIn,VisibilityMPH,Wind Direction,Wind SpeedMPH,Gust SpeedMPH,PrecipitationIn,Events,Conditions,WindDirDegrees,DateUTC
12:15 AM,53.6,35.6,51,30.13,10.0,Calm,Calm,-,N/A,,Clear,0,2013-10-06 07:15:00
12:35 AM,46.4,35.6,66,30.13,10.0,Calm,Calm,-,N/A,,Clear,0,2013-10-06 07:35:00
12:55 AM,46.4,33.8,62,30.13,10.0,Calm,Calm,-,N/A,,Clear,0,2013-10-06 07:55:00
1:15 AM,50.0,33.8,54,30.13,10.0,Calm,Calm,-,N/A,,Clear,0,2013-10-06 08:15:00
1:35 AM,46.4,35.6,66,30.13,10.0,Calm,Calm,-,N/A,,Clear,0,2013-10-06 08:35:00
1:55 AM,48.2,32.0,54,30.13,10.0,Calm,Calm,-,N/A,,Clear,0,2013-10-06 08:55:00
2:15 AM,48.2,33.8,58,30.13,10.0,Calm,Calm,-,N/A,,Clear,0,2013-10-06 09:15:00
2:35 AM,46.4,32.0,57,30.12,10.0,Calm,Calm,-,N/A,,Clear,0,2013-10-06 09:35:00
2:55 AM,48.2,32.0,54,30.12,10.0,Calm,Calm,-,N/A,,Clear,0,2013-10-06 09:55:00
3:15 AM,48.2,32.0,54,30.11,10.0,Calm,Calm,-,N/A,,Clear,0,2013-10-06 10:15:00
3:35 AM,48.2,32.0,54,30.11,10.0,Calm,Calm,-,N/A,,Clear,0,2013-10-06 10:35:00
3:55 AM,46.4,32.0,57,30.11,10.0,Calm,Calm,-,N/A,,Clear,0,2013-10-06 10:55:00
4:15 AM,46.4,32.0,57,30.11,10.0,Calm,Calm,-,N/A,,Clear,0,2013-10-06 11:15:00
4:35 AM,44.6,30.2,57,30.11,10.0,Calm,Calm,-,N/A,,Clear,0,2013-10-06 11:35:00
4:55 AM,44.6,30.2,57,30.11,10.0,Calm,Calm,-,N/A,,Clear,0,2013-10-06 11:55:00
5:15 AM,46.4,28.4,50,30.11,10.0,Calm,Calm,-,N/A,,Clear,0,2013-10-06 12:15:00
5:35 AM,46.4,33.8,62,30.11,10.0,Calm,Calm,-,N/A,,Clear,0,2013-10-06 12:35:00
5:55 AM,44.6,33.8,66,30.11,10.0,Calm,Calm,-,N/A,,Clear,0,2013-10-06 12:55:00
6:15 AM,44.6,32.0,61,30.11,10.0,Calm,Calm,-,N/A,,Clear,0,2013-10-06 13:15:00
6:35 AM,44.6,33.8,66,30.12,10.0,SW,3.5,-,N/A,,Clear,230,2013-10-06 13:35:00
6:55 AM,46.4,32.0,57,30.12,10.0,Calm,Calm,-,N/A,,Clear,0,2013-10-06 13:55:00
7:15 AM,44.6,32.0,61,30.12,10.0,Calm,Calm,-,N/A,,Clear,0,2013-10-06 14:15:00
7:35 AM,44.6,33.8,66,30.12,10.0,Calm,Calm,-,N/A,,Clear,0,2013-10-06 14:35:00
7:55 AM,46.4,35.6,66,30.13,10.0,Calm,Calm,-,N/A,,Clear,0,2013-10-06 14:55:00
8:15 AM,48.2,33.8,58,30.13,10.0,Calm,Calm,-,N/A,,Clear,0,2013-10-06 15:15:00
8:35 AM,50.0,35.6,58,30.14,10.0,Calm,Calm,-,N/A,,Clear,0,2013-10-06 15:35:00
8:55 AM,51.8,35.6,54,30.14,10.0,Calm,Calm,-,N/A,,Clear,0,2013-10-06 15:55:00
9:15 AM,53.6,35.6,51,30.14,10.0,Calm,Calm,-,N/A,,Clear,0,2013-10-06 16:15:00
9:35 AM,57.2,35.6,44,30.14,10.0,Calm,Calm,-,N/A,,Clear,0,2013-10-06 16:35:00
9:55 AM,62.6,35.6,37,30.14,10.0,Calm,Calm,-,N/A,,Clear,0,2013-10-06 16:55:00
10:15 AM,66.2,35.6,32,30.14,10.0,SE,4.6,-,N/A,,Clear,140,2013-10-06 17:15:00
10:35 AM,69.8,35.6,28,30.13,10.0,SE,4.6,-,N/A,,Clear,140,2013-10-06 17:35:00
10:55 AM,69.8,35.6,28,30.13,10.0,SE,3.5,-,N/A,,Clear,140,2013-10-06 17:55:00
11:15 AM,71.6,32.0,23,30.12,10.0,South,4.6,-,N/A,,Clear,170,2013-10-06 18:15:00
11:35 AM,71.6,32.0,23,30.12,10.0,SSW,6.9,-,N/A,,Clear,210,2013-10-06 18:35:00
11:55 AM,73.4,32.0,22,30.12,10.0,SW,5.8,-,N/A,,Clear,220,2013-10-06 18:55:00
12:15 PM,75.2,32.0,21,30.11,10.0,SW,5.8,-,N/A,Rain,Light Rain,220,2013-10-06 19:15:00
12:35 PM,75.2,32.0,21,30.11,10.0,SSE,3.5,-,N/A,Rain,Light Rain,150,2013-10-06 19:35:00
12:55 PM,77.0,32.0,19,30.10,10.0,SE,5.8,-,N/A,Rain,Light Rain,130,2013-10-06 19:55:00
1:15 PM,78.8,32.0,18,30.09,10.0,SE,5.8,-,N/A,Rain,Light Rain,140,2013-10-06 20:15:00
1:35 PM,77.0,32.0,19,30.08,10.0,SE,5.8,-,N/A,Rain,Light Rain,140,2013-10-06 20:35:00
1:55 PM,78.8,35.6,21,30.07,10.0,SSE,3.5,-,N/A,Rain,Light Rain,150,2013-10-06 20:55:00
2:15 PM,80.6,32.0,17,30.07,10.0,SE,6.9,-,N/A,Rain,Light Rain,130,2013-10-06 21:15:00
2:35 PM,80.6,33.8,18,30.06,10.0,SE,6.9,-,N/A,,Clear,130,2013-10-06 21:35:00
2:55 PM,80.6,32.0,17,30.05,10.0,SE,5.8,-,N/A,Rain,Light Rain,130,2013-10-06 21:55:00
3:15 PM,80.6,32.0,17,30.05,10.0,ESE,6.9,-,N/A,Rain,Light Rain,120,2013-10-06 22:15:00
3:35 PM,82.4,32.0,16,30.04,10.0,ESE,8.1,-,N/A,,Clear,120,2013-10-06 22:35:00
3:55 PM,80.6,28.4,15,30.03,10.0,ESE,5.8,-,N/A,,Clear,120,2013-10-06 22:55:00
4:15 PM,82.4,28.4,14,30.03,10.0,SE,3.5,-,N/A,,Clear,140,2013-10-06 23:15:00
4:35 PM,82.4,28.4,14,30.02,10.0,SE,6.9,-,N/A,,Clear,130,2013-10-06 23:35:00
4:55 PM,80.6,32.0,17,30.02,10.0,SE,4.6,-,N/A,,Clear,140,2013-10-06 23:55:00
5:15 PM,82.4,30.2,15,30.02,10.0,SE,3.5,-,N/A,,Clear,130,2013-10-07 00:15:00
5:35 PM,78.8,35.6,21,30.01,10.0,SE,4.6,-,N/A,,Clear,130,2013-10-07 00:35:00
5:55 PM,80.6,32.0,17,30.01,10.0,ESE,4.6,-,N/A,,Clear,120,2013-10-07 00:55:00
6:15 PM,77.0,37.4,24,30.01,10.0,SE,5.8,-,N/A,,Clear,130,2013-10-07 01:15:00
6:35 PM,77.0,33.8,21,30.01,10.0,Calm,Calm,-,N/A,,Clear,0,2013-10-07 01:35:00
6:55 PM,73.4,35.6,25,30.01,10.0,North,4.6,-,N/A,,Clear,350,2013-10-07 01:55:00
7:15 PM,68.0,33.8,28,30.01,10.0,North,5.8,-,N/A,,Clear,350,2013-10-07 02:15:00
7:35 PM,64.4,35.6,34,30.01,10.0,NNW,4.6,-,N/A,,Clear,330,2013-10-07 02:35:00
7:55 PM,66.2,32.0,28,30.01,10.0,NNW,5.8,-,N/A,,Clear,330,2013-10-07 02:55:00
8:15 PM,66.2,32.0,28,30.01,10.0,NW,4.6,-,N/A,,Clear,320,2013-10-07 03:15:00
8:35 PM,68.0,32.0,26,30.01,10.0,NW,3.5,-,N/A,,Clear,320,2013-10-07 03:35:00
8:55 PM,66.2,32.0,28,30.01,10.0,Calm,Calm,-,N/A,,Clear,0,2013-10-07 03:55:00
9:15 PM,64.4,32.0,30,30.02,10.0,Calm,Calm,-,N/A,,Clear,0,2013-10-07 04:15:00
9:35 PM,64.4,33.8,32,30.02,10.0,Calm,Calm,-,N/A,,Clear,0,2013-10-07 04:35:00
9:55 PM,62.6,33.8,34,30.02,10.0,Calm,Calm,-,N/A,,Clear,0,2013-10-07 04:55:00
10:15 PM,59.0,37.4,45,30.02,10.0,Calm,Calm,-,N/A,,Clear,0,2013-10-07 05:15:00
10:35 PM,57.2,35.6,44,30.02,10.0,Calm,Calm,-,N/A,,Clear,0,2013-10-07 05:35:00
10:55 PM,59.0,35.6,42,30.02,10.0,Calm,Calm,-,N/A,,Clear,0,2013-10-07 05:55:00
11:15 PM,59.0,33.8,39,30.01,10.0,Calm,Calm,-,N/A,,Clear,0,2013-10-07 06:15:00
11:35 PM,59.0,35.6,42,30.01,10.0,Calm,Calm,-,N/A,,Clear,0,2013-10-07 06:35:00
11:55 PM,57.2,33.8,41,30.01,10.0,Calm,Calm,-,N/A,,Clear,0,2013-10-07 06:55:00